Location: Hopewell Observatory
(38.8698°N, 77.6988°W)
Time: 09:57:52
(UTC-04:00)

MetOp-B - Pass Details

Date: 26 May 2018
Orbit: 820 x 820 km, 98.7° (Epoch: 24 June)

Event Time Altitude Azimuth Distance (km) Brightness Sun altitude
Exits shadow 22:23:56 24° 182° (S) 1,653 5.3 -18.7°
Maximum altitude 22:27:13 66° 258° (WSW) 896 4.4 -19.1°
Drops below altitude 10° 22:32:33 10° 341° (NNW) 2,424 7.6 -19.7°
Sets 22:34:56 0° 344° (NNW) 3,360 8.6 -20.0°
